STARLINK-32008, 60028

Orbit data source: Space-Track

STARLINK-32008, 60028 is a payload satellite owned by SpaceX/Seattle (US) in LEO that was launched on Sat, 08 Jun 2024 UTC via an FALCON 9 launch vehicle from the Air Force Eastern Test Range (AFETR). Payload-class satellites include a variety of spacecraft equipped with specific instruments for various scientific and technological missions. These include communications satellites like Starlink; space stations such as the ISS; scientific satellites like the Hubble; Earth observation satellites from companies like Planet Labs, Umbra, and HawkEye 360; GPS; miniature CubeSats for education and research; and military/defense satellites.

Loading next visibility...
Identifier
60028, 2024-111N
Orbit
LEO
Country
Flag of USUS
Related business
Manufacturer
SpaceX/Seattle
Mission
Operational Commercial Communications
Bus & Motor
STARLINK V2M, Unknown motor
Mass
730 kg wet, ~700 kg dry
Launch date (UTC)
2024-06-08 (2 years ago)
Launch vehicle
FALCON 9
Launch site
Air Force Eastern Test Range (AFETR)
Object type
Payload
Rocket body
Debris
Shape & HBR
Box + 2 Pan, 17.7 m
Radar Cross Section
33.884 m², Large (>1 m²)

Expand to show TLE details & history
Last TLE update: 3 days ago

TLE from 3 days ago
0 STARLINK-32008
1 60028U 24111N   26170.83352340  .00003137  00000-0  11797-3 0  9991
2 60028  53.1611 321.0676 0001473  79.4058 280.7109 15.30205906114675
Epoch: 2026-06-19T20:00Z
TLE epoch observation values (Epoch: 2026-06-19T20:00:16.421Z)
Latitude
-0.00001°
Longitude
112.94235°
Altitude
475.91 km
Speed
7.629 km/s
True Right ascension
21h 24m 16s
True Declination
0° 00' 00"
Sunlit
Object was in full shadow at epoch
Visualization orbit readout
Latitude
Unknown
Longitude
Unknown
Altitude
Unknown
Speed
Unknown
Apparent Right ascension
Unknown
Apparent Declination
Unknown
Sunlit
N/A
Visualization observer readout
Local Sidereal Time
21:26:39
Azimuth
Unknown
Elevation
Unknown
Doppler factor
Unknown
Orbital elements
Apogee altitude
476.463 km
Perigee altitude
474.444 km
Semi-major axis
6,853.591 km
Eccentricity
0.00015
Inclination
53.1611°
RAAN
321.0676°
Arg. of periapsis
79.4058°
True anomaly
280.69431°
Mean anomaly
280.7109°
Eccentric anomaly
280.70261°
Mean motion
3.8253 °/min
Orbital period
94.11 mins
BSTAR
0.00011797
Loading maneuver chart data...
Computing Atmospheric mass density...
Loading historical data...
Loading historical data...
Loading historical data...
Loading historical data...
Loading historical data...
Loading historical data...
Loading historical data...

Documentation

Showing up to 5 results
|